User: anonymous   Login
Location: Newark
(43.9494°N, 6.8108°E)
Time: 06:00:13
(UTC+00:00)
Language:

S-56A Canister/Altair - Orbit

View from above orbital plane
View from above orbital plane
View from above satellite
View from above satellite

Ground track
Ground track

The orbit data is extracted from the following two-line orbital elements,

1    82U 61004B   19291.36891621 +.00000036 +00000-0 +71409-4 0  9993
2    82 038.8605 018.4713 1174251 350.3142 007.6602 12.26053292777975
Epoch (UTC): 18 October 2019 08:51:14
Eccentricity: 0.1174251
inclination: 38.8605°
perigee height: 633 km
apogee height: 2499 km
right ascension of ascending node: 18.4713°
argument of perigee: 350.3142°
revolutions per day: 12.26053292
mean anomaly at epoch: 7.6602°
orbit number at epoch: 77797

The dashed part of the orbit path shows where the satellite is in the earth's shadow,  

DLR